Home   Weather   Zeitz   Past weeks

Flag for Germany Past Weather in Zeitz, Saxony-Anhalt, Germany — Yesterday and Last 2 Weeks

52 °F

Light rain. Partly sunny.

Feels Like: 48 °F
Forecast: 46 / 53 °F
Wind: 12 mph from Southwest

Location: Leipzig-Schkeuditz

Current Time: Oct 28, 2016 at 6:18:21 PM

Latest Report: Oct 28, 2016 at 5:20 PM

Visibility: N/A

Pressure: 30.39 "Hg

Humidity: 94%

Dew Point: 50 °F

Location of ZeitzLocation

Past Weather in Zeitz — Graph


Zeitz Temperature Yesterday

Maximum temperature yesterday: 54 °F (at 1:20 PM)
Minimum temperature yesterday: 41 °F (at 5:20 AM)
Average temperature yesterday: 48 °F

High & Low Weather Summary for the Past Weeks

High64 °F (Oct 16, 2:20 PM)100% (Oct 16, 7:20 AM)30.48 "Hg (Oct 16, 7:20 AM)
Low32 °F (Oct 23, 3:50 AM)52% (Oct 16, 4:20 PM)29.77 "Hg (Oct 15, 1:50 AM)
Average48 °F90%30.08 "Hg
* Reported Oct 13 5:20 PM — Oct 28 5:20 PM, Zeitz, Weather by CustomWeather, © 2016

Note: Actual official high and low records may vary slightly from our data, if they occured in-between our weather recording intervals... More about our weather records


Zeitz Weather History for the Previous 24 Hours

Scroll right to see more
Time TempWeatherWind HumidityBarometerVisibility
5:20 PM
Fri, Oct 28
52 °FLight rain. Partly sunny.12 mph94%30.39 "HgN/A
4:50 PM52 °FLight rain. Partly sunny.13 mph94%30.39 "HgN/A
4:20 PM52 °FLight rain. Partly sunny.12 mph94%30.39 "HgN/A
3:50 PM52 °FLight rain. Partly sunny.12 mph94%30.39 "Hg6 mi
3:20 PM52 °FLight rain. Broken clouds.15 mph94%30.39 "Hg4 mi
2:50 PM52 °FLight rain. Partly sunny.16 mph94%30.39 "Hg5 mi
2:20 PM54 °FLight rain. Partly sunny.17 mph88%30.39 "HgN/A
1:50 PM54 °FLight rain. Broken clouds.18 mph82%30.39 "HgN/A
1:20 PM54 °FPartly sunny.17 mph82%30.39 "HgN/A
12:50 PM54 °FBroken clouds.17 mph82%30.42 "HgN/A
12:20 PM54 °FPartly sunny.15 mph82%30.42 "HgN/A
11:50 AM54 °FBroken clouds.16 mph82%30.39 "HgN/A
11:20 AM54 °FPartly sunny.17 mph82%30.42 "HgN/A
10:50 AM52 °FPartly sunny.13 mph88%30.42 "HgN/A
10:20 AM52 °FPartly sunny.12 mph82%30.42 "HgN/A
9:50 AM52 °FPartly sunny.12 mph82%30.39 "HgN/A
9:20 AM50 °FOvercast.9 mph88%30.42 "HgN/A
8:50 AM48 °FOvercast.9 mph87%30.39 "HgN/A
8:20 AM48 °FPartly sunny.9 mph87%30.42 "HgN/A
7:50 AM48 °FPassing clouds.7 mph87%30.42 "HgN/A
7:20 AM46 °FPassing clouds.10 mph87%30.39 "HgN/A
6:50 AM46 °FPassing clouds.7 mph93%30.42 "HgN/A
6:20 AM48 °FPassing clouds.8 mph87%30.42 "HgN/A
5:50 AM48 °FPassing clouds.10 mph87%30.42 "HgN/A
5:20 AM48 °FPassing clouds.9 mph87%30.42 "HgN/A
4:50 AM48 °FPassing clouds.10 mph87%30.42 "HgN/A
4:20 AM48 °FPassing clouds.10 mph87%30.42 "HgN/A
3:50 AM46 °FPassing clouds.9 mph87%30.45 "HgN/A
3:20 AM46 °FPassing clouds.8 mph87%30.45 "HgN/A
2:50 AM46 °FPassing clouds.8 mph87%30.45 "HgN/A
2:20 AM46 °FPassing clouds.8 mph93%30.45 "HgN/A
1:50 AM46 °FPassing clouds.9 mph93%30.48 "HgN/A
1:20 AM45 °FPassing clouds.12 mph100%30.45 "HgN/A
12:50 AM45 °FClear.9 mph93%30.45 "Hg10 mi
12:20 AM46 °FClear.7 mph93%30.48 "Hg10 mi
11:50 PM
Thu, Oct 27
48 °FClear.10 mph94%30.45 "Hg10 mi
11:20 PM50 °FClear.7 mph88%30.48 "Hg6 mi
10:50 PM50 °FClear.8 mph94%30.48 "Hg5 mi
10:20 PM52 °FPartly cloudy.7 mph88%30.48 "Hg6 mi
9:50 PM50 °FClear.7 mph94%30.48 "Hg10 mi
9:20 PM50 °FClear.7 mph94%30.48 "Hg6 mi
8:50 PM50 °FClear.7 mph94%30.48 "Hg6 mi
8:20 PM48 °FClear.7 mph94%30.48 "Hg5 mi
7:50 PM48 °FClear.7 mph94%30.48 "Hg10 mi
7:20 PM50 °FClear.7 mph94%30.48 "Hg10 mi
6:50 PM52 °FClear.7 mph88%30.48 "Hg10 mi
6:20 PM52 °FClear.7 mph88%30.48 "Hg10 mi
Weather by CustomWeather, © 2016

See weather overviewHow to use our weather pages